Location: Lynch Observatory
(39.9540°N, 75.1861°W)
Time: 08:46:01
(UTC-04:00)

First-Move - Visible Passes

Search period start: 13 April 2024 00:00
Search period end: 23 April 2024 00:00
Orbit: 541 x 609 km, 97.7° (Epoch: 12 April)

Date Brightness Start Highest point End Pass type
(mag) Time Alt. Az. Time Alt. Az. Time Alt. Az.
13 Apr ? 04:18:33 10° NNE 04:22:46 69° ESE 04:23:56 45° SSE visible
13 Apr ? 05:56:27 10° NW 05:57:24 11° WNW 05:58:22 10° WNW visible
14 Apr ? 04:21:52 10° NNE 04:26:06 76° ESE 04:27:26 43° S visible
15 Apr ? 04:25:09 10° NNE 04:29:24 83° ESE 04:30:54 40° S visible
16 Apr ? 04:28:24 10° NNE 04:32:39 90° NNE 04:34:19 37° SSW visible
17 Apr ? 04:31:39 10° N 04:35:54 83° WNW 04:37:43 34° SSW visible
18 Apr ? 04:34:51 10° N 04:39:06 76° WNW 04:41:05 31° SSW visible
19 Apr ? 04:38:03 10° N 04:42:17 70° WNW 04:44:25 28° SSW visible
20 Apr ? 03:09:13 10° E 03:09:52 10° E 03:10:30 10° E visible
20 Apr ? 04:41:12 10° N 04:45:26 64° WNW 04:47:43 26° SSW visible
21 Apr ? 03:11:40 10° ENE 03:13:01 11° E 03:14:22 10° ESE visible
21 Apr ? 04:44:21 10° N 04:48:33 59° WNW 04:50:59 24° SW visible
22 Apr ? 03:14:22 10° ENE 03:16:09 12° E 03:17:56 10° ESE visible
22 Apr ? 04:47:28 10° N 04:51:38 54° WNW 04:54:13 22° SW visible
